Hourly Weather Les Cayes

Today, 28 January, Thursday

Time Temperature Precipitation Wind Pressure Humidity
00:00 +24°C° 0 mm 2 mps 761 mmHg 81%
01:00 +24°C° 0 mm 3 mps 761 mmHg 81%
02:00 +24°C° 0 mm 2 mps 760 mmHg 81%
03:00 +24°C° 0 mm 2 mps 760 mmHg 81%
04:00 +24°C° 0 mm 1 mps 760 mmHg 82%
05:00 +24°C° 0 mm 1 mps 760 mmHg 80%
06:00 +24°C° 0 mm 1 mps 760 mmHg 79%
07:00 +24°C° 0 mm 1 mps 761 mmHg 78%
08:00 +26°C° 0 mm 1 mps 761 mmHg 73%
09:00 +27°C° 0 mm 1 mps 761 mmHg 68%
10:00 +29°C° 0 mm 1 mps 762 mmHg 63%
11:00 +29°C° 0 mm 2 mps 761 mmHg 63%
12:00 +30°C° 0 mm 2 mps 761 mmHg 62%
13:00 +30°C° 0 mm 2 mps 761 mmHg 62%
14:00 +30°C° 0 mm 1 mps 760 mmHg 65%
15:00 +29°C° 0 mm 1 mps 760 mmHg 68%
16:00 +29°C° 0 mm 1 mps 759 mmHg 71%
17:00 +28°C° 0 mm 1 mps 760 mmHg 76%
18:00 +26°C° 0 mm 1 mps 760 mmHg 81%
19:00 +25°C° 0 mm 2 mps 760 mmHg 86%
20:00 +25°C° 0 mm 2 mps 760 mmHg 87%
21:00 +24°C° 0 mm 3 mps 761 mmHg 88%
22:00 +23°C° 0 mm 4 mps 761 mmHg 89%
23:00 +23°C° 0.1 mm 4 mps 761 mmHg 88%

Tomorrow, 29 January, Friday

Time Temperature Precipitation Wind Pressure Humidity
00:00 +23°C° 0.1 mm 5 mps 760 mmHg 88%
01:00 +23°C° 0.1 mm 5 mps 760 mmHg 87%
02:00 +23°C° 0 mm 5 mps 760 mmHg 87%
03:00 +23°C° 0 mm 5 mps 759 mmHg 88%
04:00 +23°C° 0 mm 5 mps 759 mmHg 88%
05:00 +23°C° 0 mm 5 mps 759 mmHg 87%
06:00 +23°C° 0 mm 5 mps 759 mmHg 86%
07:00 +22°C° 0 mm 5 mps 759 mmHg 85%
08:00 +25°C° 0 mm 4 mps 760 mmHg 76%
09:00 +27°C° 0 mm 4 mps 760 mmHg 67%
10:00 +29°C° 0 mm 3 mps 760 mmHg 57%
11:00 +29°C° 0 mm 3 mps 760 mmHg 55%
12:00 +30°C° 0 mm 2 mps 760 mmHg 53%
13:00 +30°C° 0 mm 2 mps 759 mmHg 51%
14:00 +30°C° 0 mm 2 mps 759 mmHg 55%
15:00 +29°C° 0 mm 3 mps 759 mmHg 59%
16:00 +29°C° 0 mm 3 mps 759 mmHg 63%
17:00 +27°C° 0.1 mm 3 mps 759 mmHg 71%
18:00 +26°C° 0.1 mm 4 mps 759 mmHg 79%
19:00 +25°C° 0.1 mm 4 mps 760 mmHg 87%
20:00 +25°C° 0.1 mm 5 mps 760 mmHg 88%
21:00 +25°C° 0.1 mm 5 mps 760 mmHg 88%
22:00 +23°C° 0.1 mm 5 mps 761 mmHg 88%
23:00 +23°C° 0.1 mm 5 mps 760 mmHg 87%

Day after tomorrow, 30 January, Saturday

Time Temperature Precipitation Wind Pressure Humidity
00:00 +23°C° 0.1 mm 5 mps 760 mmHg 87%
01:00 +23°C° 0.1 mm 5 mps 760 mmHg 87%
02:00 +23°C° 0.1 mm 5 mps 760 mmHg 87%
03:00 +23°C° 0.1 mm 5 mps 759 mmHg 88%
04:00 +23°C° 0.1 mm 5 mps 759 mmHg 89%
05:00 +23°C° 0 mm 5 mps 759 mmHg 88%
06:00 +23°C° 0 mm 4 mps 760 mmHg 88%
07:00 +23°C° 0 mm 4 mps 760 mmHg 87%
08:00 +25°C° 0 mm 4 mps 761 mmHg 82%
09:00 +26°C° 0 mm 4 mps 761 mmHg 76%
10:00 +28°C° 0 mm 4 mps 761 mmHg 71%
11:00 +28°C° 0 mm 3 mps 761 mmHg 69%
12:00 +29°C° 0 mm 3 mps 761 mmHg 66%
13:00 +29°C° 0 mm 2 mps 760 mmHg 64%
14:00 +29°C° 0 mm 2 mps 760 mmHg 65%
15:00 +28°C° 0 mm 2 mps 759 mmHg 67%
16:00 +28°C° 0 mm 2 mps 759 mmHg 68%
17:00 +27°C° 0 mm 2 mps 759 mmHg 72%
18:00 +26°C° 0 mm 2 mps 760 mmHg 76%
19:00 +24°C° 0 mm 2 mps 760 mmHg 80%
20:00 +24°C° 0 mm 2 mps 760 mmHg 82%
21:00 +24°C° 0 mm 2 mps 760 mmHg 83%
22:00 +24°C° 0 mm 3 mps 760 mmHg 85%
23:00 +24°C° 0 mm 3 mps 760 mmHg 86%

31 January, Sunday

Time Temperature Precipitation Wind Pressure Humidity
00:00 +24°C° 0 mm 2 mps 760 mmHg 86%
01:00 +24°C° 0 mm 2 mps 760 mmHg 87%
02:00 +24°C° 0 mm 2 mps 760 mmHg 87%
03:00 +24°C° 0 mm 2 mps 759 mmHg 87%
04:00 +24°C° 0 mm 2 mps 759 mmHg 87%
05:00 +24°C° 0 mm 2 mps 760 mmHg 87%
06:00 +24°C° 0 mm 2 mps 760 mmHg 86%
07:00 +24°C° 0 mm 2 mps 761 mmHg 86%
08:00 +26°C° 0 mm 2 mps 761 mmHg 79%
09:00 +27°C° 0 mm 2 mps 761 mmHg 71%
10:00 +29°C° 0 mm 2 mps 761 mmHg 64%
11:00 +29°C° 0 mm 2 mps 761 mmHg 62%
12:00 +30°C° 0 mm 3 mps 760 mmHg 61%
13:00 +30°C° 0 mm 3 mps 760 mmHg 59%
14:00 +30°C° 0 mm 3 mps 759 mmHg 62%
15:00 +29°C° 0 mm 3 mps 759 mmHg 64%
16:00 +28°C° 0 mm 3 mps 758 mmHg 67%
17:00 +27°C° 0 mm 3 mps 759 mmHg 70%
18:00 +26°C° 0 mm 3 mps 759 mmHg 74%
19:00 +25°C° 0 mm 3 mps 759 mmHg 78%
20:00 +25°C° 0.1 mm 3 mps 759 mmHg 78%
21:00 +25°C° 0.1 mm 3 mps 760 mmHg 79%
22:00 +25°C° 0.1 mm 3 mps 760 mmHg 79%
23:00 +25°C° 0.1 mm 3 mps 760 mmHg 80%

1 February, Monday

Time Temperature Precipitation Wind Pressure Humidity
00:00 +25°C° 0.1 mm 3 mps 759 mmHg 80%
01:00 +25°C° 0.1 mm 3 mps 759 mmHg 81%
02:00 +24°C° 0 mm 3 mps 759 mmHg 82%
03:00 +24°C° 0 mm 3 mps 759 mmHg 84%
04:00 +24°C° 0 mm 3 mps 758 mmHg 85%
05:00 +24°C° 0 mm 3 mps 759 mmHg 84%
06:00 +24°C° 0 mm 2 mps 759 mmHg 83%
07:00 +24°C° 0 mm 2 mps 759 mmHg 81%
08:00 +26°C° 0 mm 2 mps 760 mmHg 73%
09:00 +28°C° 0 mm 2 mps 760 mmHg 65%
10:00 +30°C° 0 mm 1 mps 760 mmHg 56%
11:00 +30°C° 0 mm 2 mps 760 mmHg 59%
12:00 +30°C° 0 mm 3 mps 759 mmHg 61%
13:00 +30°C° 0 mm 4 mps 759 mmHg 63%
14:00 +29°C° 0.4 mm 4 mps 758 mmHg 67%
15:00 +29°C° 0.4 mm 4 mps 758 mmHg 71%
16:00 +28°C° 0.4 mm 3 mps 758 mmHg 74%
17:00 +27°C° 0 mm 3 mps 758 mmHg 78%
18:00 +26°C° 0 mm 2 mps 758 mmHg 81%
19:00 +25°C° 0 mm 2 mps 758 mmHg 85%
20:00 +24°C° 0 mm 2 mps 759 mmHg 82%
21:00 +24°C° 0 mm 2 mps 759 mmHg 80%
22:00 +24°C° 0 mm 2 mps 759 mmHg 78%
23:00 +24°C° 0 mm 2 mps 759 mmHg 78%

2 February, Tuesday

Time Temperature Precipitation Wind Pressure Humidity
00:00 +24°C° 0 mm 2 mps 758 mmHg 78%
01:00 +24°C° 0 mm 2 mps 758 mmHg 77%
02:00 +24°C° 0 mm 2 mps 758 mmHg 78%
03:00 +24°C° 0 mm 2 mps 758 mmHg 78%
04:00 +24°C° 0 mm 2 mps 758 mmHg 78%
05:00 +24°C° 0 mm 2 mps 758 mmHg 78%
06:00 +24°C° 0 mm 2 mps 758 mmHg 78%
07:00 +24°C° 0 mm 2 mps 759 mmHg 78%
08:00 +26°C° 0 mm 2 mps 759 mmHg 74%
09:00 +27°C° 0 mm 3 mps 759 mmHg 70%
10:00 +29°C° 0 mm 3 mps 760 mmHg 66%
11:00 +29°C° 0.2 mm 3 mps 759 mmHg 66%
12:00 +30°C° 0.2 mm 3 mps 759 mmHg 66%
13:00 +30°C° 0.2 mm 3 mps 758 mmHg 66%
14:00 +29°C° 0.1 mm 3 mps 758 mmHg 67%
15:00 +29°C° 0.1 mm 3 mps 757 mmHg 68%
16:00 +29°C° 0.1 mm 3 mps 757 mmHg 69%
17:00 +27°C° 0 mm 3 mps 757 mmHg 74%
18:00 +26°C° 0 mm 2 mps 758 mmHg 79%
19:00 +25°C° 0 mm 2 mps 758 mmHg 83%
20:00 +25°C° 0 mm 2 mps 758 mmHg 83%
21:00 +25°C° 0 mm 3 mps 759 mmHg 83%
22:00 +24°C° 0 mm 3 mps 759 mmHg 83%
23:00 +24°C° 0.1 mm 3 mps 759 mmHg 84%
Show more

We Need Your Consent

Meteoprog and our Service Providers may store and access personal data such as cookies, device identifiers or other similar technologies on your device and process such data to personalise content and ads, as well as provide social media features and to analyse the traffic.

  • Store and/or access information on your device

    Cookies, device identifiers or other information can be stored or accessed on your device for the purposes indicated above.

  • Personalised ads and content, ad and content measurement, audience insights, and products development

    Ads and content can be personalised based on a profile. More data can be added to better personalise ads and content. Ad and content performance can be measured. Insights about the audience who saw the ads and content can be derived. Such data can be used to develop or improve user’s experience, systems and software.

By clicking ‘I Agree’ you will allow the use of indicated cookies, device identifiers, web beacons or other similar technologies. Your settings can be changed in the browser on your device.

For certain purposes, legitimate interests may be relied on, rather than consent. You can read more about this in our Privacy and Cookie Policy.